TimeCST,TemperatureF,Dew PointF,Humidity,Sea Level PressureIn,VisibilityMPH,Wind Direction,Wind SpeedMPH,Gust SpeedMPH,PrecipitationIn,Events,Conditions,WindDirDegrees,DateUTC
12:56 AM,27.0,21.0,78,30.01,10.0,Calm,Calm,-,N/A,,Clear,0,2012-01-10 06:56:00
1:56 AM,26.6,21.2,80,29.95,10.0,Calm,Calm,-,N/A,,Clear,0,2012-01-10 07:56:00
2:56 AM,28.0,23.0,81,29.99,10.0,Calm,Calm,-,N/A,,Clear,0,2012-01-10 08:56:00
3:56 AM,26.1,19.9,78,29.96,10.0,Calm,Calm,-,N/A,,Clear,0,2012-01-10 09:56:00
4:56 AM,23.0,19.0,85,29.96,10.0,SW,3.5,-,N/A,,Clear,220,2012-01-10 10:56:00
5:56 AM,24.1,19.9,84,29.96,10.0,Calm,Calm,-,N/A,,Clear,0,2012-01-10 11:56:00
6:56 AM,21.9,19.9,92,29.96,10.0,Calm,Calm,-,N/A,,Clear,0,2012-01-10 12:56:00
7:56 AM,24.1,21.0,88,29.95,10.0,Calm,Calm,-,N/A,,Clear,0,2012-01-10 13:56:00
8:56 AM,30.9,26.1,82,29.94,10.0,WSW,3.5,-,N/A,,Clear,240,2012-01-10 14:56:00
9:56 AM,37.9,28.0,68,29.94,10.0,WSW,3.5,-,N/A,,Clear,240,2012-01-10 15:56:00
10:56 AM,46.0,30.0,54,29.91,10.0,WSW,6.9,-,N/A,,Clear,240,2012-01-10 16:56:00
11:56 AM,46.4,28.4,50,29.82,10.0,SSW,8.1,-,N/A,,Clear,200,2012-01-10 17:56:00
12:56 PM,51.1,28.9,43,29.82,10.0,SSW,9.2,-,N/A,,Clear,200,2012-01-10 18:56:00
1:56 PM,55.0,30.0,38,29.79,10.0,SSW,8.1,-,N/A,,Clear,210,2012-01-10 19:56:00
2:56 PM,55.9,30.9,39,29.77,10.0,SSW,6.9,-,N/A,,Partly Cloudy,210,2012-01-10 20:56:00
3:56 PM,55.9,28.9,36,29.76,10.0,Variable,4.6,-,N/A,,Partly Cloudy,0,2012-01-10 21:56:00
4:56 PM,52.0,30.9,45,29.75,10.0,SSW,3.5,-,N/A,,Partly Cloudy,210,2012-01-10 22:56:00
5:56 PM,39.9,28.0,63,29.75,10.0,Calm,Calm,-,N/A,,Partly Cloudy,0,2012-01-10 23:56:00
6:56 PM,34.0,25.0,70,29.75,10.0,Calm,Calm,-,N/A,,Clear,0,2012-01-11 00:56:00
7:56 PM,32.0,25.0,75,29.73,10.0,Calm,Calm,-,N/A,,Clear,0,2012-01-11 01:56:00
8:56 PM,28.0,21.9,78,29.70,10.0,Calm,Calm,-,N/A,,Clear,0,2012-01-11 02:56:00
9:56 PM,30.0,25.0,82,29.68,10.0,Calm,Calm,-,N/A,,Clear,0,2012-01-11 03:56:00
10:56 PM,27.0,23.0,85,29.66,10.0,Calm,Calm,-,N/A,,Clear,0,2012-01-11 04:56:00
11:56 PM,26.1,23.0,88,29.64,10.0,Calm,Calm,-,N/A,,Clear,0,2012-01-11 05:56:00